Location: Sungai Igah
(2.7333°N, 114.2500°E)
Time: 20:49:20
(UTC+00:00)

Cosmos 2298 Rocket - Pass Details

Date: 14 June 2021
Orbit: 775 x 784 km, 74.0° (Epoch: 26 July)

Event Time Altitude Azimuth Distance (km) Brightness Sun altitude
Rises 21:02:25 0° 337° (NNW) 3,256 7.3 -17.4°
Reaches altitude 10° 21:04:52 10° 332° (NNW) 2,331 6.5 -16.8°
Maximum altitude 21:09:57 48° 258° (WSW) 1,010 4.2 -15.7°
Drops below altitude 10° 21:15:04 10° 184° (S) 2,338 6.2 -14.5°
Sets 21:17:32 0° 179° (S) 3,268 7.0 -14.0°
